Terminal Aerodrome Forecast
Issued by NWS Sioux Falls, SD

Home | Current Version | Previous Version | Graphics & Text | Print | Product List | Glossary On
Versions: 1 2 3 4 5 6 7 8 9 10 11 12 13 14
000
FTUS43 KFSD 270931 AAA
TAFHON
TAF AMD
KHON 270931Z 2710/2806 11008KT P6SM -SHRA SCT080 OVC120
      TEMPO 2710/2712 TSRA BKN080CB
     FM271400 12010KT P6SM BKN120
     FM272300 07011KT 4SM SHRA BKN035 OVC110
     FM280300 09012KT 6SM -SHRA BKN025=

USA.gov is the U.S. government's official web portal to all federal, state and local government web resources and services.